TimeCST,TemperatureF,Dew PointF,Humidity,Sea Level PressureIn,VisibilityMPH,Wind Direction,Wind SpeedMPH,Gust SpeedMPH,PrecipitationIn,Events,Conditions,WindDirDegrees,DateUTC
12:14 AM,19.4,15.8,86,30.11,10.0,Calm,Calm,-,N/A,,Clear,0,2013-12-13 06:14:00
12:34 AM,15.8,12.2,86,30.11,10.0,Calm,Calm,-,N/A,,Clear,0,2013-12-13 06:34:00
12:54 AM,15.8,12.2,86,30.10,10.0,Calm,Calm,-,N/A,,Clear,0,2013-12-13 06:54:00
1:14 AM,14.0,10.4,86,30.09,10.0,NE,5.8,-,N/A,,Clear,50,2013-12-13 07:14:00
1:34 AM,14.0,12.2,93,30.08,10.0,NE,6.9,-,N/A,,Clear,40,2013-12-13 07:34:00
1:54 AM,14.0,12.2,93,30.09,10.0,ENE,4.6,-,N/A,,Clear,70,2013-12-13 07:54:00
2:14 AM,14.0,12.2,93,30.09,10.0,ENE,4.6,-,N/A,,Clear,70,2013-12-13 08:14:00
2:34 AM,14.0,12.2,93,30.08,10.0,ENE,6.9,-,N/A,,Clear,70,2013-12-13 08:34:00
2:54 AM,14.0,12.2,93,30.09,10.0,ENE,6.9,-,N/A,,Clear,60,2013-12-13 08:54:00
3:14 AM,14.0,12.2,93,30.08,10.0,NE,6.9,-,N/A,,Mostly Cloudy,50,2013-12-13 09:14:00
3:34 AM,14.0,12.2,93,30.09,10.0,East,3.5,-,N/A,,Scattered Clouds,80,2013-12-13 09:34:00
3:54 AM,12.2,8.6,85,30.08,10.0,NE,5.8,-,N/A,,Clear,40,2013-12-13 09:54:00
4:14 AM,14.0,12.2,93,30.07,10.0,NE,6.9,-,N/A,,Clear,40,2013-12-13 10:14:00
4:34 AM,14.0,12.2,93,30.07,10.0,ENE,5.8,-,N/A,,Clear,70,2013-12-13 10:34:00
4:54 AM,17.6,14.0,86,30.08,10.0,ENE,6.9,-,N/A,,Clear,60,2013-12-13 10:54:00
5:14 AM,17.6,14.0,86,30.09,10.0,ENE,8.1,-,N/A,,Clear,60,2013-12-13 11:14:00
5:34 AM,17.6,14.0,86,30.09,10.0,ENE,8.1,-,N/A,,Clear,60,2013-12-13 11:34:00
5:54 AM,19.4,15.8,86,30.09,10.0,ENE,6.9,-,N/A,,Clear,70,2013-12-13 11:54:00
6:15 AM,19.4,15.8,86,30.09,10.0,ENE,9.2,-,N/A,,Clear,60,2013-12-13 12:15:00
6:34 AM,19.4,15.8,86,30.09,10.0,ENE,11.5,-,N/A,,Clear,60,2013-12-13 12:34:00
6:54 AM,19.4,15.8,86,30.09,10.0,NE,10.4,-,N/A,,Clear,50,2013-12-13 12:54:00
7:14 AM,19.4,14.0,80,30.11,10.0,NE,9.2,-,N/A,,Clear,40,2013-12-13 13:14:00
7:34 AM,19.4,14.0,80,30.10,10.0,NE,11.5,-,N/A,,Clear,50,2013-12-13 13:34:00
7:53 AM,19.4,14.0,80,30.12,10.0,ENE,10.4,-,N/A,,Clear,60,2013-12-13 13:53:00
8:15 AM,19.4,14.0,80,30.11,10.0,NE,12.7,18.4,N/A,,Clear,50,2013-12-13 14:15:00
8:34 AM,19.4,14.0,80,30.12,10.0,ENE,11.5,16.1,N/A,,Clear,70,2013-12-13 14:34:00
8:54 AM,19.4,14.0,80,30.12,10.0,NE,11.5,-,N/A,,Clear,50,2013-12-13 14:54:00
9:15 AM,19.4,14.0,80,30.12,10.0,ENE,12.7,-,N/A,,Clear,60,2013-12-13 15:15:00
9:34 AM,19.4,14.0,80,30.12,10.0,ENE,13.8,-,N/A,,Clear,60,2013-12-13 15:34:00
9:54 AM,19.4,14.0,80,30.13,10.0,ENE,15.0,18.4,N/A,,Clear,60,2013-12-13 15:54:00
10:14 AM,19.4,14.0,80,30.13,10.0,ENE,13.8,17.3,N/A,,Clear,60,2013-12-13 16:14:00
10:35 AM,19.4,14.0,80,30.13,10.0,ENE,13.8,-,N/A,,Clear,70,2013-12-13 16:35:00
10:54 AM,21.2,14.0,74,30.13,10.0,ENE,16.1,19.6,N/A,,Clear,60,2013-12-13 16:54:00
11:14 AM,21.2,14.0,74,30.12,10.0,ENE,15.0,-,N/A,,Clear,60,2013-12-13 17:14:00
11:35 AM,21.2,14.0,74,30.11,10.0,East,15.0,20.7,N/A,,Clear,80,2013-12-13 17:35:00
11:55 AM,21.2,14.0,74,30.11,10.0,East,16.1,19.6,N/A,,Clear,80,2013-12-13 17:55:00
12:14 PM,21.2,14.0,74,30.11,10.0,ENE,13.8,-,N/A,,Clear,60,2013-12-13 18:14:00
12:34 PM,21.2,14.0,74,30.11,10.0,NE,12.7,-,N/A,,Clear,50,2013-12-13 18:34:00
12:54 PM,21.2,14.0,74,30.11,10.0,ENE,13.8,18.4,N/A,,Clear,60,2013-12-13 18:54:00
1:14 PM,21.2,14.0,74,30.10,10.0,NE,15.0,18.4,N/A,,Clear,50,2013-12-13 19:14:00
1:34 PM,21.2,14.0,74,30.10,10.0,NE,16.1,-,N/A,,Clear,50,2013-12-13 19:34:00
1:54 PM,21.2,14.0,74,30.11,10.0,NE,12.7,20.7,N/A,,Clear,50,2013-12-13 19:54:00
2:15 PM,21.2,14.0,74,30.11,10.0,NE,15.0,21.9,N/A,,Clear,50,2013-12-13 20:15:00
2:34 PM,21.2,14.0,74,30.11,10.0,NE,12.7,-,N/A,,Clear,40,2013-12-13 20:34:00
2:54 PM,19.4,14.0,80,30.11,10.0,NE,11.5,17.3,N/A,,Clear,40,2013-12-13 20:54:00
3:15 PM,19.4,14.0,80,30.12,10.0,NNE,16.1,21.9,N/A,,Clear,30,2013-12-13 21:15:00
3:35 PM,19.4,12.2,74,30.12,10.0,NE,15.0,18.4,N/A,,Clear,50,2013-12-13 21:35:00
3:54 PM,19.4,12.2,74,30.12,10.0,NE,15.0,18.4,N/A,,Clear,40,2013-12-13 21:54:00
4:14 PM,19.4,12.2,74,30.13,10.0,NE,13.8,19.6,N/A,,Clear,40,2013-12-13 22:14:00
4:35 PM,19.4,12.2,74,30.13,10.0,NE,12.7,19.6,N/A,,Clear,50,2013-12-13 22:35:00
4:54 PM,19.4,12.2,74,30.14,10.0,NE,11.5,17.3,N/A,,Clear,40,2013-12-13 22:54:00
5:14 PM,19.4,12.2,74,30.14,10.0,NE,11.5,18.4,N/A,,Clear,40,2013-12-13 23:14:00
5:35 PM,19.4,12.2,74,30.14,10.0,NE,12.7,19.6,N/A,,Clear,50,2013-12-13 23:35:00
5:54 PM,19.4,12.2,74,30.14,10.0,NE,12.7,18.4,N/A,,Clear,40,2013-12-13 23:54:00
6:14 PM,19.4,12.2,74,30.16,10.0,NE,13.8,18.4,N/A,,Scattered Clouds,40,2013-12-14 00:14:00
6:35 PM,19.4,12.2,74,30.17,10.0,NE,9.2,19.6,N/A,,Scattered Clouds,40,2013-12-14 00:35:00
6:54 PM,17.6,10.4,73,30.17,10.0,NE,12.7,17.3,N/A,,Scattered Clouds,40,2013-12-14 00:54:00
7:14 PM,17.6,10.4,73,30.18,10.0,NE,13.8,18.4,N/A,,Clear,40,2013-12-14 01:14:00
7:35 PM,17.6,10.4,73,30.19,10.0,NNE,10.4,-,N/A,,Clear,30,2013-12-14 01:35:00
7:54 PM,17.6,10.4,73,30.19,10.0,NE,11.5,18.4,N/A,,Clear,40,2013-12-14 01:54:00
8:14 PM,17.6,10.4,73,30.19,10.0,NE,12.7,18.4,N/A,,Clear,40,2013-12-14 02:14:00
8:35 PM,17.6,10.4,73,30.18,10.0,NE,10.4,-,N/A,,Clear,50,2013-12-14 02:35:00
8:54 PM,15.8,10.4,79,30.19,10.0,NE,13.8,-,N/A,,Clear,40,2013-12-14 02:54:00
9:14 PM,15.8,10.4,79,30.20,10.0,NE,11.5,16.1,N/A,,Clear,40,2013-12-14 03:14:00
9:34 PM,15.8,10.4,79,30.20,10.0,NE,11.5,17.3,N/A,,Clear,40,2013-12-14 03:34:00
9:54 PM,15.8,10.4,79,30.20,10.0,NE,10.4,-,N/A,,Clear,40,2013-12-14 03:54:00
10:14 PM,15.8,10.4,79,30.21,10.0,NE,11.5,-,N/A,,Clear,40,2013-12-14 04:14:00
10:34 PM,15.8,10.4,79,30.21,10.0,NE,9.2,-,N/A,,Clear,50,2013-12-14 04:34:00
10:54 PM,15.8,10.4,79,30.21,10.0,NE,10.4,-,N/A,,Clear,40,2013-12-14 04:54:00
11:14 PM,15.8,10.4,79,30.21,10.0,NE,9.2,-,N/A,,Clear,50,2013-12-14 05:14:00
11:34 PM,15.8,10.4,79,30.21,10.0,NE,8.1,-,N/A,,Clear,40,2013-12-14 05:34:00
11:54 PM,15.8,10.4,79,30.21,10.0,NE,10.4,-,N/A,,Mostly Cloudy,40,2013-12-14 05:54:00